Location: Augsburg
(48.3836°N, 10.8929°E)
Time: 10:17:11
(UTC+01:00)

ISS - Pass Details

Date: 12 November 2017
Orbit: 401 x 407 km, 51.6° (Epoch: 25 November)

Event Time Altitude Azimuth Distance (km) Brightness Sun altitude
Exits shadow 05:52:57 30° 295° (WNW) 747 -3.1 -14.4°
Maximum altitude 05:54:24 82° 20° (NNE) 411 -3.9 -14.2°
Drops below altitude 10° 05:57:40 10° 109° (ESE) 1,453 0.4 -13.6°
Sets 05:59:44 0° 110° (ESE) 2,310 1.9 -13.3°
